Have a Safe July 4th! 

Flight Track Log - Related Links

Times and Time Zones

All times are in EDT time to prevent confusion due to time zone crossing. See the N9286M flight status page for this flight to view local times or setup timezone preferences in your user account.

Time Position Orientation Groundspeed Altitude Reporting Facility
EDT Latitude Longitude Course Direction KTS MPH feet Rate Location/Type
Sat 10:58:32 AM 41.7478 -72.6517 97° East 75 86 400  Level Boston Center
Sat 10:59:39 AM 41.7458 -72.6292 97° East 83 96 1,100 661 Climbing Boston Center
Sat 11:00:39 AM 41.7231 -72.6208 165° South 80 92 1,800 689 Climbing Boston Center
Sat 11:01:41 AM 41.7022 -72.6097 158° South 81 93 2,500 344 Climbing Boston Center
Sat 11:02:41 AM 41.6833 -72.5875 139° Southeast 91 105 2,500 50 Level Boston Center
Sat 11:03:42 AM 41.6625 -72.5708 149° Southeast 89 102 2,600  Climbing Boston Center
Sat 11:04:42 AM 41.6417 -72.5483 141° Southeast 92 106 2,500 -50 Descending Boston Center
Sat 11:05:43 AM 41.6458 -72.5206 79° East 101 116 2,500 50 Level Boston Center
Sat 11:06:43 AM 41.6731 -72.5289 347° North 94 108 2,600  Climbing Boston Center
Sat 11:07:47 AM 41.6981 -72.5264 North 101 116 2,500 -48 Descending Boston Center
Sat 11:08:47 AM 41.7272 -72.5236 North 104 120 2,500  Level Boston Center
Sat 11:09:54 AM 41.7606 -72.5125 14° North 100 115 2,500  Level Boston Center
Sat 11:10:54 AM 41.7878 -72.5069 North 99 114 2,500 -50 Level Boston Center
Sat 11:11:54 AM 41.8086 -72.5181 338° Northwest 93 107 2,400 -209 Descending Boston Center
Sat 11:12:49 AM 41.8231 -72.5403 311° West 91 105 2,100 -305 Descending Boston Center
Sat 11:13:52 AM 41.8417 -72.5628 318° Northwest 96 110 1,800 -145 Descending Boston Center
Sat 11:14:53 AM 41.8606 -72.5906 312° West 91 105 1,800 -149 Level Boston Center
Sat 11:15:53 AM 41.8772 -72.6131 315° West 84 97 1,500 -350 Descending Boston Center
Sat 11:16:53 AM 41.8917 -72.6353 311° West 82 94 1,100 -446 Descending Boston Center
Sat 11:17:54 AM 41.9125 -72.6606 318° Northwest 90 104 600 50 Descending Boston Center
Sat 11:18:54 AM 41.9250 -72.6467 40° Northeast 84 97 1,200 581 Climbing Boston Center
Sat 11:19:58 AM 41.9292 -72.6131 81° East 87 100 1,800 508 Climbing Boston Center
Sat 11:20:52 AM 41.9106 -72.6019 156° South 82 94 2,200 526 Climbing Boston Center
Sat 11:21:52 AM 41.8897 -72.5906 158° South 83 96 2,800 378 Climbing Boston Center
Sat 11:22:59 AM 41.8647 -72.5767 158° South 91 105 3,000 47 Climbing Boston Center
Sat 11:24:00 AM 41.8397 -72.5683 166° South 96 110 2,900  Descending Boston Center
Sat 11:25:00 AM 41.8125 -72.5653 175° South 89 102 3,000 48 Climbing Boston Center
Sat 11:26:04 AM 41.7917 -72.5653 180° South 72 83 3,000  Level Boston Center
Sat 11:27:04 AM 41.7606 -72.5597 172° South 113 130 3,000 -50 Level Boston Center
Sat 11:28:04 AM 41.7356 -72.5569 175° South 90 104 2,900  Descending Boston Center
Sat 11:29:05 AM 41.7106 -72.5625 189° South 82 94 3,000 50 Climbing Boston Center
Sat 11:30:05 AM 41.6875 -72.5569 170° South 88 101 3,000 -51 Level Boston Center
Sat 11:31:02 AM 41.6625 -72.5542 175° South 97 112 2,900 -51 Descending Boston Center
Sat 11:32:03 AM 41.6375 -72.5511 175° South 96 110 2,900  Level Boston Center
Sat 11:33:03 AM 41.6208 -72.5289 135° Southeast 91 105 2,900 50 Level Boston Center
Sat 11:34:04 AM 41.6064 -72.5039 128° Southeast 85 98 3,000 50 Climbing Boston Center
Sat 11:35:04 AM 41.6083 -72.4761 85° East 105 121 3,000  Level Boston Center
Sat 11:36:07 AM 41.6231 -72.4983 312° West 89 102 3,000  Level Boston Center
Sat 11:37:08 AM 41.6272 -72.5289 280° West 89 102 3,000  Level Boston Center
Sat 11:38:09 AM 41.6397 -72.5483 311° West 98 113 3,000  Level Boston Center
Sat 11:39:09 AM 41.6542 -72.5317 41° Northeast 93 107 3,000  Level Boston Center
Sat 11:40:10 AM 41.6375 -72.5011 126° Southeast 98 113 3,000 -50 Level Boston Center
Sat 11:41:10 AM 41.6272 -72.5206 235° Southwest 87 100 2,900  Descending Boston Center
Sat 11:42:11 AM 41.6375 -72.5483 296° West 103 119 3,000 48 Climbing Boston Center
Sat 11:43:14 AM 41.6500 -72.5289 49° Northeast 99 114 3,000  Level Boston Center
Sat 11:44:15 AM 41.6292 -72.5094 145° Southeast 83 96 3,000  Level Boston Center
Sat 11:45:15 AM 41.6042 -72.5067 175° South 98 113 3,000  Level Boston Center
Sat 11:46:16 AM 41.5792 -72.5067 180° South 86 99 3,000  Level Boston Center
Sat 11:47:16 AM 41.6000 -72.5289 321° Northwest 101 116 3,000 -48 Level Boston Center
Sat 11:48:20 AM 41.6250 -72.5372 346° North 100 115 2,900 -339 Descending Boston Center
Sat 11:49:20 AM 41.6481 -72.5594 324° Northwest 98 113 2,300 -700 Descending Boston Center
Sat 11:50:20 AM 41.6667 -72.5817 318° Northwest 91 105 1,500 -545 Descending Boston Center
Sat 11:51:21 AM 41.6856 -72.6014 322° Northwest 94 108 1,200 -246 Descending Boston Center
Sat 11:52:22 AM 41.7042 -72.6264 315° West 93 107 1,000 -149 Descending Boston Center
Sat 11:53:22 AM 41.7269 -72.6319 350° North 102 117 900 246 Descending Boston Center
Sat 11:54:24 AM 41.7356 -72.5958 72° East 89 102 1,500 581 Climbing Boston Center

Login

Don't have an account? Register now (free) for customized features, flight alerts, and more!